Colorado Springs, CO

1:49 PM MST on February 11, 2016 (GMT -0700)
City Of Colorado Springs Municipal

Weather History for KCOS - May, 2013

Change the Weather History Date:

Wednesday, May 22, 2013

  Actual Average Record
Temperature  
Mean Temperature 58 °F 58 °F  
Max Temperature 75 °F 71 °F 90 °F (2012)
Min Temperature 40 °F 45 °F 31 °F (1931)
Degree Days  
Heating Degree Days 7 8  
Month to date heating degree days 258 233  
Since 1 July heating degree days 6077 6155  
Cooling Degree Days 0 0  
Month to date cooling degree days 7 0  
Year to date cooling degree days 7 1  
Growing Degree Days 8 (Base 50)    
Moisture  
Dew Point 34 °F    
Average Humidity 44    
Maximum Humidity 70    
Minimum Humidity 17    
Precipitation  
Precipitation 0.02 in 0.07 in 1.06 in (1976)
Month to date precipitation 1.14 1.33  
Year to date precipitation 2.73 4.41  
Snow  
Snow 0.00 in 0.00 in 2.00 in (1930)
Month to date snowfall 1.8 0.7  
Since 1 July snowfall 29.6 37.7  
Snow Depth 0.00 in    
Sea Level Pressure  
Sea Level Pressure 29.89 in    
Wind  
Wind Speed 8 mph (East)    
Max Wind Speed 23 mph    
Max Gust Speed 28 mph    
Visibility 10 miles    
Events Rain , Thunderstorm    
T = Trace of Precipitation, MM = Missing Value Source: NWS Daily Summary

Daily Weather History Graph

Daily Weather History Graph

Search for Another Location

Airport or City:

Trip Planner

Search our weather history database for the weather conditions in past years. The results will help you decide how hot, cold, wet, or windy it might be!

Date:

Astronomy

May. 22, 2013 Rise Set
Actual Time 5:40 AM MDT 8:10 PM MDT
Civil Twilight 5:10 AM MDT 8:41 PM MDT
Nautical Twilight 4:32 AM MDT 9:19 PM MDT
Astronomical Twilight 3:50 AM MDT 10:01 PM MDT
Moon 5:37 PM MDT (5/22) 3:44 AM MDT (5/22)
Length of Visible Light 15h 31m
Length of Day
14h 29m
Waxing Gibbous, 92% of the Moon is Illuminated
May 22
Waxing Gibbous
May 24
Full
May 31
Last Quarter
Jun 8
New
Jun 16
First Quarter

Hourly Weather History & Observations

Time (MDT) Temp. Dew Point Humidity Pressure Visibility Wind Dir Wind Speed Gust Speed Precip Events Conditions
12:54 AM 48.9 °F 37.0 °F 64% 29.88 in 10.0 mi East 9.2 mph - N/A   Partly Cloudy
1:54 AM 46.9 °F 36.0 °F 66% 29.86 in 10.0 mi East 9.2 mph - N/A   Partly Cloudy
2:54 AM 45.0 °F 34.0 °F 65% 29.87 in 10.0 mi Calm Calm - N/A   Clear
3:54 AM 45.0 °F 34.0 °F 65% 29.87 in 10.0 mi Calm Calm - N/A   Clear
4:54 AM 45.0 °F 33.1 °F 63% 29.87 in 10.0 mi Calm Calm - N/A   Clear
5:54 AM 42.1 °F 33.1 °F 70% 29.88 in 10.0 mi Calm Calm - N/A   Partly Cloudy
6:54 AM 48.0 °F 35.1 °F 61% 29.88 in 10.0 mi Calm Calm - N/A   Partly Cloudy
7:54 AM 50.0 °F 36.0 °F 59% 29.90 in 10.0 mi ESE 4.6 mph - N/A   Scattered Clouds
8:54 AM 53.1 °F 36.0 °F 52% 29.89 in 10.0 mi SSE 3.5 mph - N/A   Scattered Clouds
9:54 AM 57.0 °F 36.0 °F 45% 29.87 in 10.0 mi SSE 4.6 mph - N/A   Scattered Clouds
10:54 AM 60.1 °F 36.0 °F 41% 29.86 in 10.0 mi Variable 6.9 mph - N/A   Partly Cloudy
11:54 AM 66.9 °F 36.0 °F 32% 29.82 in 10.0 mi SSW 9.2 mph - N/A   Scattered Clouds
12:54 PM 68.0 °F 33.1 °F 27% 29.81 in 10.0 mi SE 8.1 mph 16.1 mph N/A   Scattered Clouds
1:54 PM 71.1 °F 30.0 °F 22% 29.79 in 10.0 mi ESE 10.4 mph 19.6 mph N/A   Scattered Clouds
2:54 PM 72.0 °F 28.0 °F 20% 29.77 in 10.0 mi ESE 16.1 mph 20.7 mph N/A   Scattered Clouds
3:54 PM 73.9 °F 28.0 °F 18% 29.75 in 10.0 mi SSE 17.3 mph 27.6 mph N/A   Scattered Clouds
4:54 PM 73.9 °F 27.0 °F 18% 29.75 in 10.0 mi ESE 13.8 mph - N/A   Scattered Clouds
5:54 PM 73.0 °F 26.1 °F 17% 29.78 in 10.0 mi SSE 10.4 mph 21.9 mph N/A   Scattered Clouds
6:54 PM 71.1 °F 26.1 °F 19% 29.77 in 10.0 mi ESE 13.8 mph - N/A   Scattered Clouds
7:54 PM 68.0 °F 27.0 °F 21% 29.80 in 10.0 mi ESE 9.2 mph - N/A   Mostly Cloudy
8:54 PM 66.9 °F 28.9 °F 24% 29.83 in 10.0 mi ENE 6.9 mph - N/A   Mostly Cloudy
9:43 PM 66.2 °F 33.8 °F 30% 30.06 in 10.0 mi NNW 13.8 mph - N/A Thunderstorm Thunderstorm
9:54 PM 66.0 °F 33.1 °F 29% 29.87 in 10.0 mi NNW 11.5 mph - N/A Thunderstorm Thunderstorm
10:21 PM 60.8 °F 39.2 °F 45% 30.09 in 9.0 mi NNW 15.0 mph 23.0 mph 0.00 in Rain , Thunderstorm Light Thunderstorms and Rain
10:30 PM 60.8 °F 39.2 °F 45% 30.11 in 10.0 mi North 10.4 mph - 0.00 in Thunderstorm Thunderstorm
10:34 PM 60.8 °F 39.2 °F 45% 30.11 in 10.0 mi North 11.5 mph - 0.00 in Thunderstorm Thunderstorm
10:54 PM 61.0 °F 39.9 °F 46% 29.94 in 8.0 mi East 9.2 mph 23.0 mph 0.01 in Rain , Thunderstorm Light Thunderstorms and Rain
11:43 PM 55.4 °F 46.4 °F 72% 30.12 in 8.0 mi ENE 18.4 mph 24.2 mph 0.00 in Rain Light Rain
11:54 PM 54.0 °F 46.9 °F 77% 29.92 in 9.0 mi East 23.0 mph 27.6 mph 0.01 in Rain Light Rain